Weather History for Pineville, WV

Change the Weather History Date:

Friday, December 6, 2013

  Actual Average (KBKW) Record (KBKW)
Temperature  
Mean Temperature 48 °F 37 °F  
Max Temperature 55 °F 45 °F 72 °F (1916)
Min Temperature 37 °F 29 °F 6 °F (1984)
Degree Days  
Heating Degree Days 17 28  
Month to date heating degree days 165  
Since 1 July heating degree days 1305  
Cooling Degree Days 0 0  
Month to date cooling degree days 0  
Year to date cooling degree days 557  
Moisture  
Dew Point 44 °F    
Average Humidity 100    
Maximum Humidity 100    
Minimum Humidity 98    
Precipitation  
Precipitation 0.00 in 0.10 in 1.40 in (2013)
Month to date precipitation 0.59  
Year to date precipitation 38.78  
Snow  
Snow 0.00 in - - ()
Month to date snowfall  
Since 1 September snowfall  
Snow Depth -    
Sea Level Pressure  
Sea Level Pressure 30.09 in    
Wind  
Wind Speed - (North)    
Max Wind Speed -    
Max Gust Speed -    
Visibility 5 miles    
Events Rain , Snow    
T = Trace of Precipitation, MM = Missing Value Source: NWS Daily Summary

Daily Weather History Graph

Daily Weather History Graph

Search for Another Location

Airport:

Trip Planner

Search our weather history database for the weather conditions in past years. The results will help you decide how hot, cold, wet, or windy it might be!

Date:

Astronomy

Dec. 06, 2013 Rise Set
Actual Time 7:27 AM EST 5:07 PM EST
Civil Twilight 6:58 AM EST 5:36 PM EST
Nautical Twilight 6:25 AM EST 6:09 PM EST
Astronomical Twilight 5:53 AM EST 6:40 PM EST
Moon 10:34 AM EST (12/6) 9:34 PM EST (12/6)
Length of Visible Light 10h 38m
Length of Day
9h 40m
Waxing Crescent, 19% of the Moon is Illuminated
Dec 6
Waxing Crescent
Dec 9
First Quarter
Dec 17
Full
Dec 25
Last Quarter
Jan 1
New

Hourly Weather History & Observations

Time (EST) Temp. Dew Point Humidity Pressure Visibility Wind Dir Wind Speed Gust Speed Precip Events Conditions
12:15 AM 59.9 °F 59.9 °F 100% 30.00 in 10.0 mi North - - N/A   Overcast
12:35 AM 59.2 °F 59.2 °F 100% 30.00 in 7.0 mi North - - N/A Rain Rain
12:55 AM 56.1 °F 56.1 °F 100% 30.02 in 5.0 mi North - - N/A Rain Heavy Rain
1:15 AM 52.3 °F 52.3 °F 100% 30.03 in 7.0 mi North - - N/A   Light Drizzle
1:35 AM 50.2 °F 50.2 °F 100% 30.02 in 10.0 mi North - - N/A   Overcast
1:55 AM 49.5 °F 49.5 °F 100% 30.04 in 7.0 mi North - - N/A   Light Drizzle
2:15 AM 48.9 °F 48.9 °F 100% 30.06 in 4.0 mi North - - N/A   Drizzle
2:35 AM 48.2 °F 48.2 °F 100% 30.06 in 2.0 mi North - - N/A Rain Rain
2:55 AM 47.7 °F 47.7 °F 100% 30.05 in 3.0 mi North - - N/A Rain Rain
3:15 AM 47.5 °F 47.5 °F 100% 30.06 in 7.0 mi North - - N/A   Drizzle
3:35 AM 47.3 °F 47.3 °F 100% 30.06 in 10.0 mi North - - N/A   Overcast
3:55 AM 46.8 °F 46.8 °F 100% 30.06 in 3.0 mi North - - N/A Rain Light Rain
4:15 AM 46.6 °F 46.6 °F 100% 30.06 in 7.0 mi North - - N/A   Drizzle
4:35 AM 46.4 °F 46.4 °F 100% 30.06 in 3.0 mi North - - N/A Rain Rain
4:55 AM 46.4 °F 46.4 °F 100% 30.08 in 3.0 mi North - - N/A Rain Rain
5:15 AM 45.7 °F 45.7 °F 100% 30.08 in 7.0 mi North - - N/A   Light Drizzle
5:35 AM 45.5 °F 45.5 °F 100% 30.08 in 4.0 mi North - - N/A   Light Drizzle
5:55 AM 45.1 °F 45.1 °F 100% 30.08 in 4.0 mi North - - N/A   Overcast
6:15 AM 45.0 °F 45.0 °F 100% 30.06 in 5.0 mi North - - N/A Rain Light Rain
6:35 AM 44.6 °F 44.4 °F 99% 30.07 in 3.0 mi North - - N/A   Overcast
6:55 AM 44.6 °F 44.6 °F 100% 30.08 in 3.0 mi North - - N/A   Overcast
7:15 AM 43.9 °F 43.9 °F 100% 30.12 in 1.8 mi North - - N/A Rain Rain
7:35 AM 42.6 °F 42.4 °F 99% 30.09 in 1.5 mi North - - N/A   Unknown
7:55 AM 42.3 °F 42.3 °F 100% 30.13 in 0.8 mi North - - N/A   Unknown
8:15 AM 42.4 °F 42.4 °F 100% 30.13 in 1.8 mi North - - N/A   Unknown
8:35 AM 42.8 °F 42.8 °F 100% 30.09 in 1.8 mi North - - N/A   Unknown
8:55 AM 43.3 °F 43.3 °F 100% 30.11 in 5.0 mi North - - N/A Rain Light Rain
9:15 AM 43.3 °F 43.3 °F 100% 30.13 in 2.5 mi North - - N/A Rain Rain
9:35 AM 43.7 °F 43.7 °F 100% 30.12 in 4.0 mi North - - N/A   Light Drizzle
9:55 AM 43.7 °F 43.7 °F 100% 30.10 in 2.5 mi North - - N/A Rain Light Rain
10:15 AM 43.9 °F 43.9 °F 100% 30.10 in 2.5 mi North - - N/A Rain Rain
10:35 AM 43.7 °F 43.7 °F 100% 30.10 in 1.8 mi North - - N/A Rain Light Rain
10:55 AM 43.9 °F 43.9 °F 100% 30.11 in 1.0 mi North - - N/A   Unknown
11:15 AM 44.2 °F 44.2 °F 100% 30.09 in 2.5 mi North - - N/A Rain Light Rain
11:35 AM 44.4 °F 44.2 °F 99% 30.08 in 5.0 mi North - - N/A   Light Drizzle
11:55 AM 44.4 °F 44.2 °F 99% 30.06 in 4.0 mi North - - N/A   Light Drizzle
12:15 PM 44.6 °F 44.6 °F 100% 30.06 in 2.0 mi North - - N/A Rain Rain
12:35 PM 44.8 °F 44.6 °F 99% 30.06 in 1.8 mi North - - N/A Rain Rain
12:55 PM 45.0 °F 44.8 °F 99% 30.05 in 2.5 mi North - - N/A   Drizzle
1:15 PM 44.8 °F 44.6 °F 99% 30.04 in 4.0 mi North - - N/A   Light Drizzle
1:35 PM 45.0 °F 44.6 °F 99% 30.03 in 4.0 mi North - - N/A   Light Drizzle
1:55 PM 45.5 °F 45.1 °F 99% 30.01 in 10.0 mi North - - N/A   Overcast
2:15 PM 45.3 °F 45.0 °F 99% 30.00 in 3.0 mi North - - N/A   Drizzle
2:35 PM 44.6 °F 44.2 °F 99% 30.02 in 1.0 mi North - - N/A Rain Light Rain
2:55 PM 44.2 °F 44.1 °F 99% 30.03 in 3.0 mi North - - N/A Rain Light Rain
3:15 PM 43.5 °F 43.3 °F 99% 30.03 in 2.5 mi North - - N/A   Drizzle
3:35 PM 43.7 °F 43.3 °F 99% 30.03 in 10.0 mi North - - N/A   Overcast
3:55 PM 42.8 °F 42.4 °F 99% 30.05 in 10.0 mi North - - N/A Rain Rain
4:15 PM 41.9 °F 41.4 °F 98% 30.05 in 10.0 mi North - - N/A Rain Light Rain
4:35 PM 41.9 °F 41.4 °F 98% 30.03 in 10.0 mi North - - N/A   Overcast
4:55 PM 41.4 °F 41.0 °F 99% 30.08 in 4.0 mi North - - N/A   Overcast
5:15 PM 40.8 °F 40.3 °F 98% 30.09 in 7.0 mi North - - N/A   Overcast
5:35 PM 40.5 °F 40.1 °F 99% 30.08 in 4.0 mi North - - N/A   Overcast
5:55 PM 40.5 °F 40.1 °F 99% 30.09 in 2.0 mi North - - N/A   Unknown
6:55 PM 39.2 °F 38.8 °F 99% 30.13 in 4.0 mi North - - N/A   Overcast
7:15 PM 38.8 °F 38.8 °F 100% 30.17 in 2.0 mi North - - N/A   Overcast
7:35 PM 38.8 °F 38.8 °F 100% 30.19 in 2.5 mi North - - N/A   Overcast
7:55 PM 38.5 °F 38.5 °F 100% 30.18 in 2.5 mi North - - N/A   Unknown
8:15 PM 38.5 °F 38.5 °F 100% 30.15 in 2.5 mi North - - N/A   Unknown
8:35 PM 38.7 °F 38.7 °F 100% 30.15 in 1.8 mi North - - N/A   Unknown
8:55 PM 38.3 °F 38.3 °F 100% 30.18 in 3.0 mi North - - N/A   Unknown
9:15 PM 38.5 °F 38.5 °F 100% 30.20 in 3.0 mi North - - N/A   Overcast
9:35 PM 37.9 °F 37.9 °F 100% 30.20 in 3.0 mi North - - N/A Snow Light Snow
9:55 PM 38.3 °F 38.3 °F 100% 30.21 in 3.0 mi North - - N/A   Overcast
10:15 PM 37.9 °F 37.9 °F 100% 30.19 in 2.5 mi North - - N/A Snow Light Snow
10:35 PM 37.9 °F 37.9 °F 100% 30.23 in 10.0 mi North - - N/A   Overcast
10:55 PM 37.9 °F 37.9 °F 100% 30.21 in 7.0 mi North - - N/A   Overcast
11:15 PM 37.8 °F 37.8 °F 100% 30.21 in 10.0 mi North - - N/A   Overcast
11:35 PM 37.8 °F 37.8 °F 100% 30.22 in 10.0 mi North - - N/A   Overcast
11:55 PM 37.9 °F 37.9 °F 100% 30.22 in 10.0 mi North - - N/A   Overcast